FW0642 Boston MA US current weather conditions

sailwx.info

Wind from 058 at 0 knots gusting 4

Air temperature 35.0° C
Dewpoint 23.3° C

Last reported at 2020-Aug-11 18:01 UTC.
Time now 2020-Aug-11 19:14 UTC

Location: N 42°17' W 071°08'.
View on Google Maps.

See reports from other nearby stations

  
Tides and Currents Weather Stations Pressure Air Temp Water Temp Dewpoint Dewpoint Depression Visibility Wind Speed Wind Dir Waves Ship Positions
date/time (UTC)wind fromknots sea level pressurealtimeterstation pressurevisibilityair tempwater tempwave heightnotes
2020-Aug-11 18:01 058 0 gusting 4 35.0
2020-Aug-11 17:46 084 1 gusting 6 35.0
2020-Aug-11 17:31 306 0 gusting 6 35.6
2020-Aug-11 17:16 303 1 gusting 8 35.6
2020-Aug-11 17:01 220 0 gusting 6 35.6
2020-Aug-11 16:47 229 1 gusting 8 35.0
2020-Aug-11 16:30 264 1 gusting 6 35.6
2020-Aug-11 16:16 180 1 gusting 6 35.6
2020-Aug-11 16:00 115 1 gusting 6 35.6
2020-Aug-11 15:46 276 0 gusting 6 35.6
2020-Aug-11 15:30 279 2 gusting 6 35.0
2020-Aug-11 15:15 236 0 gusting 5 34.4
2020-Aug-11 15:00 103 0 gusting 4 33.9
2020-Aug-11 14:45 261 0 gusting 3 33.3
2020-Aug-11 14:18 288 31.7
2020-Aug-11 14:02 197 31.1
2020-Aug-11 13:46 191 30.6
2020-Aug-11 13:31 235 0 gusting 4 30.6
2020-Aug-11 13:19 236 0 gusting 3 30.0
2020-Aug-11 13:01 052 29.4
2020-Aug-11 12:45 323 28.3
2020-Aug-11 12:30 086 27.2
2020-Aug-11 12:16 210 0 gusting 4 26.7
2020-Aug-11 12:00 324 25.6
2020-Aug-11 11:45 280 25.0
2020-Aug-11 11:30 180 24.4
2020-Aug-11 11:15 335 23.9
2020-Aug-11 11:00 235 23.3
2020-Aug-11 10:45 213 22.8
2020-Aug-11 10:30 212 22.2
2020-Aug-11 10:15 190 22.2
2020-Aug-11 10:00 302 22.2
2020-Aug-11 09:45 208 22.2
2020-Aug-11 09:31 208 22.2
2020-Aug-11 09:17 208 22.2
2020-Aug-11 09:02 207 22.2
2020-Aug-11 08:46 207 22.2
2020-Aug-11 08:32 207 22.8
2020-Aug-11 08:16 207 22.8
2020-Aug-11 08:02 207 22.8
2020-Aug-11 07:46 207 22.8
2020-Aug-11 07:31 207 23.3
2020-Aug-11 07:16 207 23.3
2020-Aug-11 07:01 207 23.3
2020-Aug-11 06:46 196 23.9
2020-Aug-11 06:31 196 23.9
2020-Aug-11 06:15 217 24.4
2020-Aug-11 06:01 237 24.4
2020-Aug-11 05:46 250 24.4
2020-Aug-11 05:31 233 25.0
2020-Aug-11 05:16 232 25.0
2020-Aug-11 05:00 248 25.6
2020-Aug-11 04:46 228 25.6
2020-Aug-11 04:32 231 25.6
2020-Aug-11 04:15 232 26.1
2020-Aug-11 04:00 234 0 gusting 5 26.1
2020-Aug-11 03:46 169 26.1
2020-Aug-11 03:30 206 0 gusting 4 26.1
2020-Aug-11 03:15 198 25.6
2020-Aug-11 03:00 360 26.1
2020-Aug-11 02:45 360 26.1
2020-Aug-11 02:30 360 26.7
2020-Aug-11 02:15 360 26.7
2020-Aug-11 02:00 360 26.7
2020-Aug-11 01:45 360 27.2
2020-Aug-11 01:30 360 27.2
2020-Aug-11 01:16 360 27.2
2020-Aug-11 01:00 360 27.8
2020-Aug-11 00:45 360 28.3
2020-Aug-11 00:30 061 28.9
2020-Aug-11 00:15 061 28.9
2020-Aug-11 00:00 061 29.4
2020-Aug-10 23:45 055 29.4
2020-Aug-10 23:30 049 30.0
2020-Aug-10 23:15 009 30.6
2020-Aug-10 23:00 360 31.1
2020-Aug-10 22:45 038 31.7
2020-Aug-10 22:30 184 32.2
2020-Aug-10 22:15 213 32.8
2020-Aug-10 22:00 294 32.8
2020-Aug-10 21:45 031 0 gusting 3 33.3
2020-Aug-10 21:30 217 0 gusting 5 33.9
2020-Aug-10 21:15 009 0 gusting 6 34.4
2020-Aug-10 21:00 246 0 gusting 6 35.0
2020-Aug-10 20:45 265 1 gusting 5 35.6
2020-Aug-10 20:32 329 0 gusting 3 36.1
2020-Aug-10 20:16 271 2 gusting 6 36.1
2020-Aug-10 20:01 202 2 gusting 7 36.1
2020-Aug-10 19:46 026 0 gusting 5 36.1
2020-Aug-10 19:31 275 0 gusting 4 36.1
2020-Aug-10 19:17 129 0 gusting 4 36.7
2020-Aug-10 19:02 252 1 gusting 6 36.7
2020-Aug-10 18:46 033 0 gusting 5 36.7
2020-Aug-10 18:31 296 1 gusting 6 36.7
2020-Aug-10 18:16 290 0 gusting 5 35.6
2020-Aug-10 18:01 073 0 gusting 4 34.4
2020-Aug-10 17:47 315 0 gusting 7 35.0
2020-Aug-10 17:31 317 1 gusting 6 35.6
2020-Aug-10 17:16 250 0 gusting 5 35.0
2020-Aug-10 17:01 295 35.0
2020-Aug-10 16:45 222 1 gusting 6 35.6
2020-Aug-10 16:30 268 0 gusting 4 35.0
2020-Aug-10 16:15 236 1 gusting 6 35.0
2020-Aug-10 16:00 087 0 gusting 6 35.0
2020-Aug-10 15:45 175 0 gusting 5 34.4
2020-Aug-10 15:30 059 0 gusting 3 33.9
2020-Aug-10 15:15 306 1 gusting 6 33.3
2020-Aug-10 15:00 306 1 gusting 6 32.8
2020-Aug-10 14:31 287 1 gusting 4 31.1
2020-Aug-10 14:16 005 30.6
2020-Aug-10 14:01 306 0 gusting 2 29.4
2020-Aug-10 13:46 227 0 gusting 3 28.9
2020-Aug-10 13:32 246 28.9
2020-Aug-10 13:16 205 0 gusting 4 27.8
2020-Aug-10 13:01 207 0 gusting 3 27.2
2020-Aug-10 12:46 308 1 gusting 4 26.7
2020-Aug-10 12:30 265 0 gusting 3 25.6
2020-Aug-10 12:15 269 25.0
2020-Aug-10 12:00 180 23.9
2020-Aug-10 11:45 306 22.8
2020-Aug-10 11:30 207 0 gusting 4 22.2
2020-Aug-10 11:15 269 0 gusting 6 22.2
2020-Aug-10 11:00 360 21.7
2020-Aug-10 10:45 360 21.7
2020-Aug-10 10:30 261 21.1
2020-Aug-10 10:17 257 21.1
2020-Aug-10 10:01 255 21.1
2020-Aug-10 09:46 255 21.1
2020-Aug-10 09:31 065 21.1
2020-Aug-10 09:01 040 21.7
2020-Aug-10 08:46 360 21.7
2020-Aug-10 08:31 263 21.7
2020-Aug-10 08:16 258 21.7
2020-Aug-10 08:01 216 21.7
2020-Aug-10 07:46 270 21.7
2020-Aug-10 07:32 245 22.2
2020-Aug-10 07:16 250 22.2
2020-Aug-10 07:01 273 22.2
2020-Aug-10 06:46 198 22.2
2020-Aug-10 06:31 225 22.2
2020-Aug-10 06:16 219 22.2
2020-Aug-10 06:01 257 22.2
2020-Aug-10 05:46 190 22.2
2020-Aug-10 05:31 082 22.2
2020-Aug-10 05:16 148 22.2
2020-Aug-10 05:01 255 22.2
2020-Aug-10 04:46 267 22.2
2020-Aug-10 04:31 360 22.8
2020-Aug-10 04:16 089 22.8
2020-Aug-10 04:00 083 22.8
2020-Aug-10 03:45 062 22.8
2020-Aug-10 03:30 062 23.3
2020-Aug-10 03:16 062 23.3
2020-Aug-10 03:00 062 23.9
2020-Aug-10 02:45 062 23.9
2020-Aug-10 02:31 056 23.9
2020-Aug-10 02:15 208 24.4
2020-Aug-10 02:00 205 24.4
2020-Aug-10 01:45 049 24.4
2020-Aug-10 01:30 221 25.0
2020-Aug-10 01:15 163 25.0
2020-Aug-10 01:00 166 25.6
2020-Aug-10 00:45 310 25.6
2020-Aug-10 00:30 298 26.1
2020-Aug-10 00:16 206 26.1
2020-Aug-10 00:00 360 26.7
2020-Aug-09 23:45 360 0 gusting 3 27.2
2020-Aug-09 23:30 360 27.8
2020-Aug-09 23:15 360 27.8
2020-Aug-09 23:00 143 28.3
2020-Aug-09 22:45 171 0 gusting 6 28.3
2020-Aug-09 22:30 094 28.9
2020-Aug-09 22:15 083 0 gusting 5 29.4
2020-Aug-09 22:00 115 29.4
2020-Aug-09 21:45 178 0 gusting 4 30.0
2020-Aug-09 21:30 122 1 gusting 6 30.6
2020-Aug-09 21:15 236 1 gusting 5 30.6
2020-Aug-09 21:00 291 30.6
2020-Aug-09 20:45 094 0 gusting 3 31.1
2020-Aug-09 20:30 072 0 gusting 6 32.2
2020-Aug-09 20:15 093 0 gusting 3 33.9
2020-Aug-09 20:02 326 0 gusting 5 35.0
2020-Aug-09 19:47 133 0 gusting 5 35.0
2020-Aug-09 19:31 039 0 gusting 8 35.0
2020-Aug-09 19:15 290 1 gusting 5 34.4
2020-Aug-09 19:00 289 1 gusting 6 33.9